Location: Cussy
(47.0410°N, 4.6412°E)
Time: 14:43:50
(UTC+00:00)

Sich 1 - Pass Details

Date: 30 November 2020
Orbit: 594 x 625 km, 82.5° (Epoch: 26 January)

Event Time Altitude Azimuth Distance (km) Brightness Sun altitude
Rises 16:46:59 0° 349° (N) 2,902 6.4 -8.8°
Reaches altitude 10° 16:49:14 10° 348° (NNW) 1,987 5.6 -9.1°
Maximum altitude 16:53:37 77° 264° (W) 632 3.2 -9.8°
Drops below altitude 10° 16:57:56 10° 178° (S) 1,950 5.9 -10.5°
Sets 17:00:08 0° 176° (S) 2,844 6.7 -10.9°
